Location: Rostock
(54.0884°N, 12.1234°E)
Time: 10:37:11
(UTC+01:00)

ISS - Pass Details

Date: 11 January 2018
Orbit: 402 x 406 km, 51.6° (Epoch: 16 January)

Event Time Altitude Azimuth Distance (km) Brightness Sun altitude
Exits shadow 05:42:24 29° 155° (SSE) 775 -2.2 -22.9°
Drops below altitude 10° 05:44:26 10° 128° (SE) 1,464 -0.2 -22.6°
Sets 05:46:35 0° 120° (ESE) 2,323 1.2 -22.2°
